Weather History for KNYC - April, 2013

Change the Weather History Date:

Monday, April 22, 2013

  Actual Average Record
Temperature  
Mean Temperature 48 °F 55 °F  
Max Temperature 55 °F 64 °F 86 °F (2001)
Min Temperature 41 °F 47 °F 33 °F (1947)
Degree Days  
Heating Degree Days 17 10  
Month to date heating degree days 288 299  
Since 1 July heating degree days 4424 4521  
Cooling Degree Days 0 1  
Month to date cooling degree days 2 1  
Year to date cooling degree days 2 2  
Moisture  
Dew Point 31 °F    
Average Humidity 53    
Maximum Humidity 67    
Minimum Humidity 38    
Precipitation  
Precipitation 0.00 in 0.14 in 2.45 in (2012)
Month to date precipitation 1.27 3.38  
Year to date precipitation 11.18 14.48  
Snow  
Snow 0.00 in 0.00 in T in (1972)
Month to date snowfall 0.0 0.6  
Since 1 July snowfall 26.1 25.8  
Snow Depth 0.00 in    
Sea Level Pressure  
Sea Level Pressure 30.59 in    
Wind  
Wind Speed 10 mph (East)    
Max Wind Speed 21 mph    
Max Gust Speed 26 mph    
Visibility 10 miles    
Events      
T = Trace of Precipitation, MM = Missing Value Source: NWS Daily Summary

Daily Weather History Graph

Daily Weather History Graph

Search for Another Location

Airport or City:

Trip Planner

Search our weather history database for the weather conditions in past years. The results will help you decide how hot, cold, wet, or windy it might be!

Date:

Astronomy

Apr. 22, 2013 Rise Set
Actual Time 6:06 AM EDT 7:42 PM EDT
Civil Twilight 5:37 AM EDT 8:12 PM EDT
Nautical Twilight 5:02 AM EDT 8:47 PM EDT
Astronomical Twilight 4:25 AM EDT 9:24 PM EDT
Moon 4:28 PM EDT (4/22) 4:00 AM EDT (4/22)
Length of Visible Light 14h 34m
Length of Day
13h 36m
Waxing Gibbous, 87% of the Moon is Illuminated
Apr 22
Waxing Gibbous
Apr 25
Full
May 2
Last Quarter
May 9
New
May 18
First Quarter

Hourly Weather History & Observations

Time (EDT) Temp. Windchill Dew Point Humidity Pressure Visibility Wind Dir Wind Speed Gust Speed Precip Events Conditions
12:51 AM 45.0 °F 43.5 °F 30.0 °F 56% 30.63 in 10.0 mi South 3.5 mph - N/A   Clear
1:51 AM 44.1 °F 40.1 °F 27.0 °F 51% 30.62 in 10.0 mi SSE 6.9 mph - N/A   Clear
2:51 AM 43.0 °F 39.5 °F 28.0 °F 56% 30.63 in 10.0 mi SSE 5.8 mph - N/A   Clear
3:51 AM 42.1 °F 40.2 °F 28.9 °F 60% 30.62 in 10.0 mi Variable 3.5 mph - N/A   Clear
4:51 AM 42.1 °F 37.1 °F 30.9 °F 65% 30.63 in 10.0 mi ENE 8.1 mph - N/A   Clear
5:51 AM 42.1 °F 38.4 °F 32.0 °F 67% 30.63 in 10.0 mi East 5.8 mph - N/A   Clear
6:51 AM 43.0 °F 39.5 °F 30.9 °F 62% 30.64 in 10.0 mi Variable 5.8 mph - N/A   Clear
7:51 AM 44.1 °F 38.6 °F 33.1 °F 65% 30.63 in 10.0 mi ENE 10.4 mph 20.7 mph N/A   Clear
8:51 AM 46.0 °F 41.0 °F 32.0 °F 58% 30.65 in 10.0 mi ENE 10.4 mph 19.6 mph N/A   Partly Cloudy
9:51 AM 48.9 °F - 28.0 °F 44% 30.65 in 10.0 mi SE 12.7 mph 20.7 mph N/A   Scattered Clouds
10:51 AM 50.0 °F - 32.0 °F 50% 30.65 in 10.0 mi ENE 10.4 mph 17.3 mph N/A   Clear
11:51 AM 51.1 °F - 32.0 °F 48% 30.64 in 10.0 mi ENE 15.0 mph 20.7 mph N/A   Partly Cloudy
12:51 PM 52.0 °F - 32.0 °F 47% 30.62 in 10.0 mi ENE 16.1 mph 25.3 mph N/A   Partly Cloudy
1:51 PM 52.0 °F - 33.1 °F 49% 30.59 in 10.0 mi East 12.7 mph 21.9 mph N/A   Partly Cloudy
2:51 PM 54.0 °F - 32.0 °F 43% 30.58 in 10.0 mi ENE 19.6 mph 25.3 mph N/A   Scattered Clouds
3:51 PM 53.1 °F - 30.0 °F 41% 30.55 in 10.0 mi East 12.7 mph 20.7 mph N/A   Mostly Cloudy
4:51 PM 54.0 °F - 30.9 °F 41% 30.53 in 10.0 mi ESE 11.5 mph - N/A   Partly Cloudy
5:51 PM 53.1 °F - 28.9 °F 40% 30.52 in 10.0 mi Variable 4.6 mph - N/A   Clear
6:51 PM 51.1 °F - 27.0 °F 39% 30.52 in 10.0 mi East 8.1 mph 19.6 mph N/A   Clear
7:51 PM 48.9 °F - 28.0 °F 44% 30.51 in 10.0 mi Variable 5.8 mph - N/A   Clear
8:51 PM 48.0 °F - 28.9 °F 48% 30.51 in 10.0 mi East 8.1 mph 16.1 mph N/A   Partly Cloudy
9:51 PM 46.9 °F - 32.0 °F 56% 30.52 in 10.0 mi ENE 8.1 mph 20.7 mph N/A   Scattered Clouds
10:51 PM 46.0 °F 41.0 °F 34.0 °F 63% 30.51 in 10.0 mi ENE 10.4 mph - N/A   Overcast
11:51 PM 45.0 °F 39.3 °F 32.0 °F 60% 30.49 in 10.0 mi ENE 11.5 mph - N/A   Overcast